Weather History for KTTD - November, 2012

Change the Weather History Date:

Saturday, November 24, 2012

  Actual Average Record
Temperature  
Mean Temperature 45 °F 43 °F  
Max Temperature 52 °F 50 °F 65 °F (1949)
Min Temperature 37 °F 37 °F 15 °F (2010)
Degree Days  
Heating Degree Days 20 22  
Month to date heating degree days 366 446  
Cooling Degree Days 0 0  
Month to date cooling degree days 0 0  
Moisture  
Dew Point 44 °F    
Average Humidity 85    
Maximum Humidity 93    
Minimum Humidity 77    
Precipitation  
Precipitation 0.19 in 0.24 in 2.05 in (1960)
Month to date precipitation 7.16 5.82  
Year to date precipitation 43.21 38.34  
Snow  
Snow 0.00 in - - ()
Month to date snowfall 0.0  
Snow Depth 0.00 in    
Sea Level Pressure  
Sea Level Pressure 30.21 in    
Wind  
Wind Speed 1 mph (West)    
Max Wind Speed 9 mph    
Max Gust Speed 13 mph    
Visibility 8 miles    
Events Fog , Rain , Snow    
T = Trace of Precipitation, MM = Missing Value Source: NWS Daily Summary

Daily Weather History Graph

Daily Weather History Graph

Search for Another Location

Airport or City:

Trip Planner

Search our weather history database for the weather conditions in past years. The results will help you decide how hot, cold, wet, or windy it might be!

Date:

Astronomy

Nov. 24, 2012 Rise Set
Actual Time 7:21 AM PST 4:31 PM PST
Civil Twilight 6:48 AM PST 5:04 PM PST
Nautical Twilight 6:12 AM PST 5:40 PM PST
Astronomical Twilight 5:36 AM PST 6:16 PM PST
Moon 2:25 PM PST (11/24) 3:35 AM PST (11/24)
Length of Visible Light 10h 15m
Length of Day
9h 09m
Waxing Gibbous, 88% of the Moon is Illuminated
Nov 24
Waxing Gibbous
Nov 28
Full
Dec 6
Last Quarter
Dec 13
New
Dec 19
First Quarter

Hourly Weather History & Observations

Time (PST) Temp. Dew Point Humidity Pressure Visibility Wind Dir Wind Speed Gust Speed Precip Events Conditions
12:01 AM 48.2 °F 46.4 °F 93% 30.15 in 6.0 mi ENE 3.5 mph - 0.01 in Rain Rain
12:10 AM 48.2 °F 46.4 °F 93% 30.16 in 3.0 mi Calm Calm - 0.04 in Rain Rain
12:53 AM 50.0 °F 46.9 °F 89% 30.14 in 6.0 mi North 4.6 mph - 0.09 in Rain Rain
1:23 AM 48.2 °F 48.2 °F 100% 30.15 in 4.0 mi Calm Calm - 0.04 in Rain Rain
1:44 AM 50.0 °F 48.2 °F 94% 30.16 in 3.0 mi Calm Calm - 0.08 in Rain Rain
1:53 AM 50.0 °F 48.0 °F 93% 30.16 in 2.5 mi WSW 3.5 mph - 0.09 in Rain Light Rain
2:08 AM 51.8 °F 48.2 °F 88% 30.17 in 4.0 mi West 5.8 mph - 0.01 in Rain Light Rain
2:14 AM 51.8 °F 48.2 °F 88% 30.17 in 4.0 mi WNW 5.8 mph - 0.01 in Rain Light Rain
2:18 AM 51.8 °F 48.2 °F 88% 30.17 in 5.0 mi West 3.5 mph - 0.01 in Rain Light Rain
2:28 AM 51.8 °F 48.2 °F 88% 30.17 in 9.0 mi West 4.6 mph - 0.01 in   Overcast
2:53 AM 51.1 °F 48.0 °F 89% 30.19 in 7.0 mi West 5.8 mph - 0.02 in Rain Light Rain
3:09 AM 50.0 °F 48.2 °F 94% 30.19 in 10.0 mi West 6.9 mph - 0.00 in   Overcast
3:18 AM 50.0 °F 48.2 °F 94% 30.19 in 9.0 mi West 4.6 mph - 0.00 in   Overcast
3:39 AM 50.0 °F 48.2 °F 94% 30.18 in 10.0 mi WSW 5.8 mph - 0.00 in   Overcast
3:53 AM 50.0 °F 48.0 °F 93% 30.19 in 10.0 mi WSW 5.8 mph - 0.00 in   Overcast
4:53 AM 51.1 °F 46.0 °F 83% 30.20 in 10.0 mi Variable 4.6 mph - N/A   Overcast
5:06 AM 50.0 °F 46.4 °F 87% 30.21 in 10.0 mi West 3.5 mph - N/A   Overcast
5:34 AM 50.0 °F 46.4 °F 87% 30.21 in 10.0 mi West 3.5 mph - N/A   Overcast
5:53 AM 48.9 °F 46.0 °F 90% 30.22 in 10.0 mi WSW 5.8 mph - N/A   Overcast
6:53 AM 48.9 °F 46.0 °F 90% 30.22 in 10.0 mi SW 4.6 mph - N/A   Overcast
7:53 AM 48.9 °F 46.0 °F 90% 30.22 in 10.0 mi Calm Calm - N/A   Overcast
8:53 AM 48.9 °F 46.0 °F 90% 30.24 in 10.0 mi Calm Calm - N/A   Scattered Clouds
9:45 AM 50.0 °F 46.4 °F 87% 30.25 in 10.0 mi Calm Calm - N/A   Mostly Cloudy
9:53 AM 50.0 °F 45.0 °F 83% 30.25 in 10.0 mi Calm Calm - N/A   Mostly Cloudy
10:01 AM 50.0 °F 46.4 °F 87% 30.25 in 10.0 mi Calm Calm - N/A   Mostly Cloudy
10:53 AM 51.1 °F 44.1 °F 77% 30.25 in 10.0 mi West 3.5 mph - N/A   Partly Cloudy
11:53 AM 51.1 °F 44.1 °F 77% 30.23 in 10.0 mi Calm Calm - N/A   Partly Cloudy
12:53 PM 52.0 °F 44.1 °F 74% 30.22 in 10.0 mi Calm Calm - N/A   Clear
1:53 PM 52.0 °F 44.1 °F 74% 30.22 in 10.0 mi Calm Calm - N/A   Partly Cloudy
2:53 PM 51.1 °F 44.1 °F 77% 30.21 in 10.0 mi Calm Calm - N/A   Mostly Cloudy
3:53 PM 51.1 °F 44.1 °F 77% 30.22 in 10.0 mi Calm Calm - N/A   Clear
4:53 PM 48.0 °F 44.1 °F 86% 30.21 in 10.0 mi Calm Calm - N/A   Clear
5:53 PM 46.0 °F 43.0 °F 89% 30.21 in 10.0 mi Calm Calm - N/A   Mostly Cloudy
6:53 PM 44.1 °F 42.1 °F 93% 30.21 in 1.8 mi Calm Calm - N/A   Overcast
6:55 PM 44.6 °F 42.8 °F 93% 30.21 in 10.0 mi Calm Calm - N/A   Overcast
7:53 PM 43.0 °F 39.9 °F 89% 30.21 in 10.0 mi Calm Calm - N/A   Mostly Cloudy
8:53 PM 42.1 °F 39.9 °F 92% 30.22 in 10.0 mi Calm Calm - N/A   Scattered Clouds
9:18 PM 39.2 °F 37.4 °F 93% 30.23 in 10.0 mi Calm Calm - N/A   Mostly Cloudy
9:20 PM 39.2 °F 37.4 °F 93% 30.23 in 10.0 mi Calm Calm - N/A   Mostly Cloudy
9:53 PM 39.9 °F 37.0 °F 89% 30.23 in 10.0 mi Calm Calm - N/A   Mostly Cloudy
10:00 PM 39.2 °F 37.4 °F 93% 30.23 in 0.2 mi Calm Calm - N/A   Mostly Cloudy
10:17 PM 37.4 °F 35.6 °F 93% 30.23 in 0.2 mi Calm Calm - N/A Fog Fog
10:53 PM 37.0 °F 36.0 °F 96% 30.24 in 0.2 mi Calm Calm - 0.00 in Fog , Snow Light Snow
11:19 PM 39.2 °F 37.4 °F 93% 30.25 in 1.2 mi Calm Calm - 0.00 in   Overcast
11:35 PM 39.2 °F 37.4 °F 93% 30.25 in 3.0 mi Calm Calm - 0.00 in   Overcast
11:53 PM 39.9 °F 39.0 °F 97% 30.25 in 7.0 mi Calm Calm - 0.00 in   Overcast